BAW828Y EGLL-EIDW

Flight info

Callsign BAW828Y
Flight time N/A
Altitude 34000
Route CPT L9 DIDZA N14 BIBPE DCT OKTAD DCT MEDOG DCT KRAGY DCT PEMOB DCT LEMGU M17 VATRY VATRY4L
Aircraft A319/M-SDE3FGHIRWY/LB1

Departure

Time 2026-05-07 09:53
Airport London Heathrow Airport (EGLL)

Arrival

Time N/A
Airport Dublin Airport (EIDW)
Time Latitude Longitude Altitude Speed Heading
2026-05-07 09:33 51.46928 -0.48718 87 ft 0 kts 360°
2026-05-07 09:39 51.46927 -0.48718 87 ft 0 kts 360°
2026-05-07 09:46 51.46917 -0.48718 89 ft 4 kts 356°
2026-05-07 09:46 51.46892 -0.48710 87 ft 4 kts 330°
2026-05-07 09:46 51.46877 -0.48683 89 ft 2 kts 270°
2026-05-07 09:46 51.46876 -0.48674 88 ft 0 kts 270°
2026-05-07 09:51 51.46876 -0.48697 87 ft 4 kts 270°
2026-05-07 09:51 51.46862 -0.48748 88 ft 7 kts 213°
2026-05-07 09:51 51.46805 -0.48751 87 ft 10 kts 179°
2026-05-07 09:52 51.46726 -0.48748 87 ft 13 kts 179°
2026-05-07 09:52 51.46627 -0.48755 88 ft 16 kts 198°
2026-05-07 09:52 51.46524 -0.48785 87 ft 16 kts 164°
2026-05-07 09:52 51.46478 -0.48628 88 ft 20 kts 86°
2026-05-07 09:53 51.46477 -0.48196 88 ft 66 kts 90°
2026-05-07 09:53 51.46481 -0.47137 87 ft 123 kts 89°
2026-05-07 09:53 51.46488 -0.45492 132 ft 166 kts 89°
2026-05-07 09:53 51.46490 -0.43660 800 ft 163 kts 91°
2026-05-07 09:54 51.46458 -0.41842 1559 ft 162 kts 94°
2026-05-07 09:54 51.46190 -0.40003 1954 ft 182 kts 123°
2026-05-07 09:54 51.45150 -0.38690 2293 ft 205 kts 161°
2026-05-07 09:54 51.43669 -0.38625 2678 ft 232 kts 195°
2026-05-07 09:55 51.42210 -0.39970 3369 ft 251 kts 219°
2026-05-07 09:55 51.41302 -0.41200 4067 ft 254 kts 221°